Weather History for Evansville, IN

Change the Weather History Date:

Monday, March 3, 2014

  Actual Average Record
Temperature  
Mean Temperature 19 °F 42 °F  
Max Temperature 24 °F 52 °F 78 °F (1983)
Min Temperature 13 °F 32 °F 1 °F (1943)
Degree Days  
Heating Degree Days 46 23  
Month to date heating degree days 105 71  
Since 1 July heating degree days 4067 3645  
Cooling Degree Days 0 0  
Month to date cooling degree days 0 0  
Year to date cooling degree days 0 0  
Moisture  
Dew Point 10 °F    
Average Humidity 68    
Maximum Humidity 80    
Minimum Humidity 55    
Precipitation  
Precipitation 0.08 in 0.11 in 1.88 in (2008)
Month to date precipitation 0.86 0.34  
Year to date precipitation 4.81 6.61  
Snow  
Snow 0.50 in 0.10 in 1.00 in (1971)
Month to date snowfall 2.2 0.2  
Since 1 July snowfall 12.2 10.9  
Snow Depth 2.00 in    
Sea Level Pressure  
Sea Level Pressure 30.35 in    
Wind  
Wind Speed 9 mph (North)    
Max Wind Speed 21 mph    
Max Gust Speed 26 mph    
Visibility 8 miles    
Events Snow    
T = Trace of Precipitation, MM = Missing Value Source: NWS Daily Summary

Daily Weather History Graph

Daily Weather History Graph

Search for Another Location

Airport:

Trip Planner

Search our weather history database for the weather conditions in past years. The results will help you decide how hot, cold, wet, or windy it might be!

Date:

Astronomy

Mar. 03, 2014 Rise Set
Actual Time 6:18 AM CST 5:45 PM CST
Civil Twilight 5:52 AM CST 6:11 PM CST
Nautical Twilight 5:22 AM CST 6:42 PM CST
Astronomical Twilight 4:51 AM CST 7:13 PM CST
Moon 7:30 AM CST (3/3) 8:44 PM CST (3/3)
Length of Visible Light 12h 19m
Length of Day
11h 26m
Waxing Crescent, 8% of the Moon is Illuminated
Mar 3
Waxing Crescent
Mar 8
First Quarter
Mar 16
Full
Mar 23
Last Quarter
Mar 30
New

Hourly Weather History & Observations

Time (CST) Temp. Windchill Dew Point Humidity Pressure Visibility Wind Dir Wind Speed Gust Speed Precip Events Conditions
12:13 AM 16.0 °F 1.7 °F 10.0 °F 77% 30.24 in 1.8 mi North 13.8 mph 21.9 mph 0.01 in Snow Light Snow
12:42 AM 16.0 °F 1.1 °F 10.9 °F 81% 30.25 in 1.2 mi North 15.0 mph 21.9 mph 0.03 in Snow Light Snow
12:54 AM 16.0 °F 3.6 °F 10.9 °F 81% 30.27 in 1.5 mi North 10.4 mph - 0.03 in Snow Light Snow
1:26 AM 16.0 °F 0.6 °F 10.0 °F 77% 30.25 in 1.2 mi North 16.1 mph 24.2 mph 0.01 in Snow Light Snow
1:38 AM 16.0 °F 2.9 °F 10.0 °F 77% 30.25 in 2.0 mi North 11.5 mph - 0.02 in Snow Light Snow
1:43 AM 16.0 °F 1.7 °F 10.0 °F 77% 30.24 in 3.0 mi North 13.8 mph 20.7 mph 0.02 in Snow Light Snow
1:54 AM 16.0 °F 1.1 °F 10.0 °F 77% 30.27 in 4.0 mi North 15.0 mph - 0.02 in Snow Light Snow
2:06 AM 16.0 °F 0.6 °F 10.9 °F 81% 30.23 in 2.0 mi North 16.1 mph - 0.00 in Snow Light Snow
2:26 AM 16.0 °F 1.1 °F 10.9 °F 81% 30.23 in 1.8 mi North 15.0 mph - 0.00 in Snow Light Snow
2:54 AM 16.0 °F 2.9 °F 10.9 °F 81% 30.25 in 1.2 mi North 11.5 mph - 0.02 in Snow Light Snow
3:17 AM 16.0 °F 1.7 °F 10.9 °F 81% 30.24 in 1.5 mi North 13.8 mph 21.9 mph 0.00 in Snow Light Snow
3:28 AM 16.0 °F 2.9 °F 10.0 °F 77% 30.25 in 3.0 mi North 11.5 mph 20.7 mph 0.01 in Snow Light Snow
3:54 AM 16.0 °F 2.3 °F 10.0 °F 77% 30.28 in 10.0 mi North 12.7 mph - 0.01 in   Overcast
4:06 AM 16.0 °F 2.9 °F 10.0 °F 77% 30.26 in 10.0 mi North 11.5 mph - N/A   Overcast
4:54 AM 16.0 °F 2.9 °F 10.0 °F 77% 30.31 in 10.0 mi North 11.5 mph - N/A   Overcast
5:54 AM 16.0 °F -0.9 °F 8.1 °F 71% 30.33 in 10.0 mi North 19.6 mph 25.3 mph N/A   Overcast
6:54 AM 16.0 °F 1.7 °F 9.0 °F 74% 30.36 in 10.0 mi North 13.8 mph 21.9 mph N/A   Overcast
7:54 AM 16.0 °F 2.9 °F 9.0 °F 74% 30.41 in 10.0 mi North 11.5 mph - N/A   Scattered Clouds
8:54 AM 17.1 °F 3.0 °F 9.0 °F 71% 30.41 in 10.0 mi North 13.8 mph - N/A   Clear
9:54 AM 19.0 °F 6.1 °F 10.9 °F 71% 30.41 in 10.0 mi North 12.7 mph - N/A   Partly Cloudy
10:54 AM 19.9 °F 7.3 °F 10.9 °F 68% 30.42 in 10.0 mi NNE 12.7 mph 21.9 mph N/A   Scattered Clouds
11:38 AM 21.0 °F 9.3 °F 12.0 °F 68% 30.40 in 10.0 mi North 11.5 mph - N/A   Mostly Cloudy
11:54 AM 21.0 °F 9.3 °F 12.0 °F 68% 30.42 in 10.0 mi North 11.5 mph - N/A   Mostly Cloudy
12:54 PM 21.9 °F 11.0 °F 12.9 °F 68% 30.43 in 10.0 mi NNE 10.4 mph 17.3 mph 0.00 in   Mostly Cloudy
1:25 PM 23.0 °F 12.4 °F 12.9 °F 65% 30.40 in 10.0 mi North 10.4 mph - N/A   Scattered Clouds
1:54 PM 23.0 °F 11.7 °F 12.9 °F 65% 30.42 in 10.0 mi NNE 11.5 mph - N/A   Clear
2:54 PM 24.1 °F 13.1 °F 14.0 °F 65% 30.43 in 10.0 mi North 11.5 mph - N/A   Partly Cloudy
3:54 PM 24.1 °F 15.2 °F 12.9 °F 62% 30.43 in 10.0 mi NNE 8.1 mph - N/A   Clear
4:54 PM 24.1 °F 14.4 °F 10.9 °F 57% 30.44 in 10.0 mi North 9.2 mph - N/A   Clear
5:54 PM 21.0 °F 12.4 °F 10.0 °F 63% 30.43 in 10.0 mi North 6.9 mph - N/A   Clear
6:54 PM 19.0 °F 12.3 °F 10.0 °F 68% 30.44 in 10.0 mi NNW 4.6 mph - N/A   Clear
7:54 PM 17.1 °F - 9.0 °F 71% 30.43 in 10.0 mi Calm Calm - N/A   Clear
8:54 PM 16.0 °F - 9.0 °F 74% 30.44 in 10.0 mi Calm Calm - N/A   Clear
9:54 PM 15.1 °F 7.7 °F 9.0 °F 77% 30.43 in 10.0 mi NE 4.6 mph - N/A   Clear
10:54 PM 15.1 °F - 8.1 °F 74% 30.40 in 10.0 mi Calm Calm - N/A   Clear
11:54 PM 15.1 °F 9.4 °F 7.0 °F 70% 30.40 in 10.0 mi ENE 3.5 mph - N/A   Clear